sat.trackr.live / text

‹ back to catalog

MOHAMMED VI-A

NORAD 43005 · 2017-070A

PAYLOAD ACTIVE UNKNOWN

§ Identity

Operator
Country
MA
Launch date
2017-11-08
Launch site
FRGUI
Launch vehicle
Mass (kg)
RCS (m²)

External: N2YO · Heavens-Above · Gunter

§ Orbital elements

Epoch: 2026-05-25T04:17:11.820192Z

Period
97.49 min
Inclination
97.9558°
Eccentricity
0.0001646
Mean motion
14.77103897 rev/d
Perigee alt
637.3 km
Apogee alt
639.6 km
Semi-major
7,016.6 km
B*
1.1652e-4
RAAN
217.8254°
Arg perigee
102.5699°
Mean anomaly
257.5695°
Rev number
46,058

§ Raw data

MOHAMMED VI-A1 43005U 17070A   26145.17860903  .00000772  00000+0  11652-3 0  99922 43005  97.9558 217.8254 0001646 102.5699 257.5695 14.77103897460584

JSON: /api/v1/satellites/43005 · /tle

For live sub-satellite position, see the globe view (requires WebGL).

§ Visibility from observer

Set your observer location to see the next 7 days of passes ≥ 10°. The values pass through the URL so the page stays shareable.

No JS? Fill the form by hand. The geolocation button needs JavaScript.

§ Radio — SatNOGS DB

ModeDescriptionDownlinkUplink
BPSK Telemetry 2.242 GHz

1 transmitter · refreshed weekly from db.satnogs.org